Temperature
20 20 20 20 18 17 18 19 19 19 18 18 19 18 18 17 17 17 17 17 17 17 17 17 17 17 17 17 17 17 17 17 17 17 17 17 17 17 17 17 17 17 17 17 17 17 17 17 17
20 20 20 20 17 17 18 18 18 19 19 19 19 18 17 17 17 17 17 17 17 17 17 17 17 17 17 17 17 17 17 17 17 17 17 17 17 17 17 17 17 17 17 17 17 17 17 17 17
20 20 20 17 17 17 19 19 18 19 19 19 18 18 17 17 17 17 17 17 17 17 17 17 17 17 17 17 17 17 17 17 17 17 17 17 17 17 17 17 17 17 17 17 17 17 17 17 17
20 20 20 17 18 18 18 18 18 19 19 19 18 17 17 17 17 17 17 17 17 17 17 17 17 17 17 17 17 17 17 17 17 17 17 17 17 17 17 17 17 17 17 17 17 17 17 16 17
21 20 17 18 19 18 18 18 19 18 18 18 18 17 17 17 17 17 17 17 17 17 17 17 17 17 17 17 17 17 17 17 17 17 17 17 17 17 17 17 17 17 17 16 16 16 16 16 16
21 18 17 18 18 19 18 19 19 18 18 18 17 17 17 17 17 17 17 17 17 17 17 17 17 17 17 17 17 16 16 17 17 17 16 16 16 16 16 16 16 16 16 16 16 16 16 16 16
20 17 17 18 18 19 19 19 18 18 17 18 18 17 17 17 17 17 17 17 17 17 17 17 17 17 17 16 16 16 16 16 16 16 16 16 16 16 16 16 16 16 16 16 16 16 16 16 16
20 16 18 18 18 19 19 19 19 18 18 18 18 17 17 17 17 17 17 17 17 17 17 17 17 17 16 16 16 16 16 16 16 16 16 16 16 16 16 16 16 16 16 16 16 16 16 16 16
20 17 17 18 18 19 19 19 18 18 18 18 18 18 17 17 17 17 17 17 17 17 16 16 16 16 16 16 16 16 16 16 16 16 16 16 16 16 16 16 16 16 16 16 16 16 16 16 16
20 17 18 19 18 18 18 18 18 18 17 17 17 17 17 17 17 17 17 17 17 17 16 16 16 16 16 16 16 16 16 16 16 16 16 16 16 16 16 16 16 16 16 16 16 16 16 16 15
19 18 18 19 19 19 18 18 18 18 17 17 17 17 17 17 17 17 17 17 17 17 17 17 16 16 16 16 16 16 16 16 16 16 16 16 16 16 16 16 16 16 16 16 15 15 15 15 15
18 18 19 19 19 19 19 18 18 18 18 19 18 18 17 17 17 17 17 17 17 17 17 17 16 16 16 16 16 16 16 16 16 16 16 16 16 16 16 16 16 15 15 15 15 15 15 15 15
18 19 19 19 19 19 19 18 18 18 18 18 18 18 17 17 17 17 17 17 17 17 17 17 17 16 16 16 16 16 16 16 16 16 16 16 16 16 16 15 15 15 15 15 15 15 15 15 15
19 19 19 19 19 19 18 18 18 18 18 18 18 18 17 17 17 17 17 17 17 17 17 17 17 17 16 16 16 16 16 16 16 16 16 16 16 16 15 15 15 15 15 15 15 15 15 15 15
19 18 18 18 19 19 19 18 17 18 18 18 18 18 17 17 17 17 17 17 17 17 17 17 17 16 16 16 16 16 16 16 16 16 16 16 15 15 15 15 15 15 15 15 15 15 15 15 15
19 18 18 18 18 18 18 17 17 18 18 17 17 17 17 17 17 17 17 17 17 17 17 17 17 17 17 16 16 16 16 16 16 16 16 16 15 15 15 15 15 15 15 15 15 15 15 14 15
17 17 17 18 18 18 18 17 17 18 17 17 17 17 17 17 17 17 17 18 17 17 17 17 17 17 16 16 16 16 16 16 16 16 16 15 15 15 15 15 15 15 15 14 14 14 14 14 14
17 17 17 17 18 18 17 16 16 17 17 17 17 17 17 17 17 17 17 17 17 17 17 17 17 17 17 16 16 16 16 16 16 16 15 15 15 15 15 15 15 15 15 14 14 14 14 14 14
18 18 17 18 18 17 17 16 16 17 16 16 16 17 17 17 18 17 17 17 17 17 17 17 17 17 17 16 16 16 16 16 16 16 15 15 15 15 15 15 15 15 15 15 14 14 14 14 14
18 18 18 18 18 17 16 16 16 16 16 16 16 17 17 17 17 17 17 17 17 17 17 17 17 17 16 16 16 16 16 16 15 15 15 15 15 15 15 15 15 15 15 14 14 14 14 14 14
18 18 18 18 18 17 17 17 16 16 16 16 17 17 17 17 17 17 17 17 17 17 17 17 17 17 16 16 16 16 16 16 16 15 15 15 15 15 15 15 15 15 15 15 14 14 14 14 14
18 19 18 18 17 16 17 16 16 15 15 16 16 17 17 17 17 17 17 17 17 17 17 17 17 17 16 16 16 16 16 16 16 15 15 15 15 15 15 15 15 15 14 14 14 14 14 14 14
19 19 18 18 17 16 16 16 15 15 15 15 16 16 17 18 18 18 18 18 17 17 17 17 17 17 16 16 16 16 16 16 15 15 15 15 15 15 15 15 14 14 14 14 14 14 14 14 13
18 17 17 15 15 16 16 16 16 15 16 16 16 17 17 18 18 18 18 18 17 17 17 17 17 17 16 16 16 16 16 16 16 15 15 15 15 15 15 15 14 14 14 14 14 14 13 13 13
18 16 16 16 15 16 16 16 16 17 16 16 16 17 18 18 18 18 17 17 17 17 17 17 17 17 16 16 16 16 16 16 15 15 15 15 15 15 15 15 14 14 14 14 14 13 13 13 13
18 17 16 17 16 16 16 16 16 17 17 17 17 18 18 18 18 18 18 17 17 17 17 17 17 16 16 16 16 16 15 15 15 15 15 15 15 15 14 14 14 14 14 14 13 13 13 13 13
18 16 16 15 16 16 16 16 16 17 17 16 17 17 17 17 18 18 18 17 17 17 17 17 16 16 16 16 16 16 15 15 15 15 15 15 14 14 14 14 14 14 14 13 13 13 13 13 13
18 16 15 15 16 16 16 16 16 17 16 16 16 16 17 17 17 17 17 17 17 17 17 16 16 16 16 16 15 15 15 15 15 15 15 14 14 14 14 14 14 14 13 13 13 13 13 13 13
17 17 15 14 14 15 16 16 17 16 16 16 16 17 17 17 17 17 17 17 17 17 17 16 16 16 16 15 15 15 15 15 15 14 14 14 14 14 14 13 13 13 13 13 13 13 13 13 13
18 17 15 16 15 14 14 15 17 16 16 16 16 17 17 17 17 17 17 17 17 17 16 16 16 16 15 15 15 15 14 14 14 14 14 14 13 13 13 13 13 13 13 13 13 13 13 12 12
Wind_Speed
3 6 4 4 5 5 2 2 1 2 3 3 4 6 6 4 2 2 2 1 1 1 2 3 5 6 6 7 7 7 7 8 8 9 9 9 9 10 10 10 10 10 9 9 9 9 9 9 10
4 4 4 5 5 3 2 2 1 1 3 3 4 5 5 4 2 2 0 0 2 2 3 3 6 6 7 7 7 7 7 8 9 9 9 9 9 10 10 10 10 10 10 10 9 10 10 10 10
3 3 4 4 4 3 2 0 2 2 3 2 4 4 3 2 1 2 2 2 2 2 3 4 6 7 7 7 7 7 7 8 9 9 9 9 9 10 10 10 10 10 10 10 10 10 10 10 10
4 4 5 5 4 1 2 2 3 4 3 4 4 4 3 3 1 2 3 4 4 3 3 4 6 6 7 7 7 7 8 9 9 8 8 9 9 9 9 9 10 9 9 9 10 9 10 10 10
4 4 5 4 2 1 1 1 2 3 3 3 3 4 3 4 3 4 5 4 4 3 3 3 5 6 6 6 7 7 8 8 8 8 8 8 8 8 8 9 9 9 9 9 9 9 9 9 10
4 4 5 3 1 2 1 2 3 4 3 3 3 3 2 2 3 3 4 4 3 3 4 4 5 6 7 7 7 7 7 8 8 8 7 7 7 7 7 8 9 8 8 8 9 9 10 10 10
4 4 4 3 2 1 1 2 4 4 3 2 3 4 1 1 1 3 4 4 4 3 4 4 5 5 5 6 6 6 6 7 7 7 7 7 7 7 7 7 8 8 8 9 9 9 10 10 10
5 5 4 2 3 1 1 3 3 4 2 2 3 5 3 3 2 4 5 5 4 3 3 3 4 5 5 4 5 5 5 5 6 6 6 6 6 7 7 7 8 8 9 9 10 10 10 11 11
4 5 2 2 4 2 2 3 2 3 4 2 2 2 3 5 5 5 5 3 2 2 2 2 3 3 3 3 4 4 4 6 6 6 6 6 6 6 6 7 8 9 9 9 9 10 11 11 11
5 4 2 2 3 4 3 3 4 4 3 2 3 4 6 7 6 5 4 3 2 1 0 1 1 2 2 2 4 4 5 5 6 6 6 6 6 6 6 6 7 8 9 9 10 10 10 10 9
4 4 2 1 3 4 4 3 3 6 2 3 5 6 6 6 5 5 3 3 3 2 1 1 1 1 1 1 3 3 3 4 5 5 5 5 6 6 6 6 6 7 8 8 9 9 8 8 8
4 2 2 2 3 4 3 3 3 2 2 3 6 8 7 6 5 5 3 2 1 2 2 2 2 1 1 2 2 2 2 2 3 3 4 5 4 4 5 5 5 6 6 7 7 7 8 8 8
4 2 3 4 6 5 5 4 3 1 2 6 8 7 6 6 4 3 2 2 2 2 2 2 2 2 2 2 1 2 1 1 2 3 4 4 3 3 3 4 5 6 7 6 5 6 6 6 7
3 4 4 4 4 3 5 2 3 0 4 6 7 6 5 5 4 2 2 2 2 2 2 2 3 3 3 2 1 1 1 2 2 2 3 4 4 4 4 4 4 5 6 6 6 6 5 5 5
4 5 5 3 2 1 3 3 0 2 5 6 5 5 4 3 3 4 4 3 3 3 2 3 4 3 3 2 1 2 2 3 2 2 3 4 5 5 4 3 3 4 6 7 7 7 6 5 5
4 4 2 2 0 1 3 2 3 3 6 5 4 4 3 3 3 4 3 2 3 3 2 3 3 4 3 2 2 2 2 3 2 3 3 4 5 6 5 4 3 4 6 6 4 4 5 4 4
3 1 1 2 1 2 3 3 3 3 5 5 5 4 4 3 3 3 2 3 3 3 3 3 3 4 3 3 2 3 3 3 2 3 4 4 5 6 6 4 3 5 5 3 3 3 3 3 4
3 2 2 3 2 3 3 3 3 3 5 6 5 4 4 5 5 3 3 2 2 2 3 3 3 3 4 3 3 2 3 2 3 3 3 4 5 7 7 5 4 4 3 3 3 3 3 3 3
5 4 2 3 2 3 3 4 5 3 4 5 6 6 6 6 5 2 2 2 2 2 3 3 4 4 4 2 2 2 1 1 1 1 2 4 5 6 6 4 4 3 3 3 3 3 4 3 2
3 3 2 1 2 3 2 4 4 3 5 6 8 8 8 6 3 2 2 2 3 3 3 3 3 4 4 3 2 2 2 1 1 1 2 3 4 5 5 4 3 3 3 3 3 3 2 1 2
3 5 4 3 1 2 1 4 3 2 2 3 5 6 6 8 7 6 4 4 3 4 4 4 4 4 4 4 3 3 3 2 2 1 1 1 3 4 5 4 4 3 3 3 3 3 4 2 1
4 5 5 4 3 1 1 3 6 4 3 4 6 6 7 7 7 7 6 5 5 5 4 4 4 4 4 4 4 4 3 2 2 1 1 0 2 3 4 4 4 3 2 3 3 3 2 3 2
3 2 3 2 3 1 1 2 6 2 4 7 8 8 8 8 8 8 7 7 5 4 3 3 3 3 3 4 5 4 3 2 1 1 1 1 1 2 3 4 4 3 2 3 3 3 3 3 3
4 5 5 4 3 1 3 4 5 4 6 6 6 7 8 8 7 7 6 4 3 3 3 3 3 3 3 4 5 5 5 3 2 2 2 1 1 1 2 3 3 3 2 3 3 3 3 3 3
4 5 3 3 2 4 2 3 7 6 5 6 7 7 7 6 6 6 5 5 4 4 4 4 4 4 3 4 4 5 5 5 5 4 3 2 2 2 3 3 3 2 3 3 3 3 3 3 3
4 6 5 3 4 4 1 4 6 5 4 3 4 3 4 5 6 6 7 6 5 5 4 4 5 4 4 4 4 4 4 4 4 4 4 4 3 3 3 3 3 4 4 3 3 2 2 2 3
5 3 4 5 2 1 4 5 6 2 2 1 1 2 3 5 6 6 6 6 5 5 5 5 5 4 4 4 3 3 3 4 4 4 3 3 3 3 3 3 3 3 3 3 3 2 2 2 2
4 7 5 4 3 2 5 4 5 5 4 2 2 3 4 4 4 4 5 5 5 5 4 4 4 4 3 3 3 2 3 3 3 3 3 3 3 2 3 3 3 3 3 3 3 2 2 3 2
3 4 4 4 4 4 3 6 5 6 6 5 5 4 4 4 4 4 4 4 3 3 4 4 4 3 3 3 3 3 2 2 2 3 3 3 2 2 3 3 3 3 3 3 3 3 3 4 3
4 5 6 4 3 4 3 6 5 4 4 4 4 3 3 3 3 3 3 3 3 3 3 4 4 4 4 4 3 3 2 2 2 2 2 2 2 2 2 3 3 3 3 3 4 4 4 4 4
Wind_Direction
108 100 87 65 58 54 45 347 0 50 55 47 64 80 91 81 84 126 289 120 115 111 100 122 116 110 107 107 104 102 100 101 101 103 100 98 97 97 95 91 86 86 87 84 83 80 79 78 75
111 98 63 62 82 78 352 335 58 62 134 126 71 70 73 64 62 99 2 188 115 121 118 122 112 108 105 106 105 104 104 104 103 102 101 100 98 97 94 90 85 83 84 83 79 77 78 79 78
106 66 81 74 89 137 157 155 127 86 97 86 75 59 73 72 97 153 213 140 102 93 102 119 117 113 110 108 106 104 105 107 105 102 100 99 98 96 93 90 85 82 81 80 75 74 76 78 76
89 51 58 72 82 139 170 168 144 107 60 47 88 67 53 24 146 163 140 119 102 84 92 122 123 118 113 108 105 107 106 103 102 100 99 98 98 97 94 91 88 83 81 79 77 74 77 76 77
65 80 67 65 53 27 55 121 114 94 66 45 81 89 30 1 69 106 117 114 108 89 83 108 117 115 116 115 110 108 107 104 103 99 99 96 96 97 96 95 92 85 82 79 75 74 77 77 78
59 71 86 99 53 17 41 87 96 81 78 67 85 97 37 27 81 110 109 99 93 95 79 80 107 111 109 107 105 103 107 105 102 97 96 94 94 93 95 93 90 85 82 78 74 74 78 76 75
99 90 109 131 118 55 98 98 110 114 97 97 111 103 83 54 104 116 102 88 79 81 80 69 72 85 97 100 102 103 98 97 98 93 88 85 85 86 88 87 85 84 81 77 73 70 75 73 73
114 98 90 114 128 152 124 97 95 102 107 95 103 129 176 207 129 96 82 74 72 71 72 71 69 72 75 80 85 89 93 93 90 86 83 78 75 74 78 77 80 81 77 73 71 70 75 74 72
89 79 116 179 164 174 137 109 87 81 96 71 68 137 157 127 118 99 81 63 62 83 60 67 63 56 59 67 69 68 69 69 69 69 71 66 60 62 70 77 77 76 73 71 69 68 71 70 68
79 111 185 203 167 144 113 113 136 105 85 68 59 62 95 115 126 126 131 144 155 181 151 102 82 59 53 58 60 57 62 59 61 64 64 62 57 60 66 70 71 70 68 69 67 67 67 64 62
96 137 154 93 119 118 113 98 106 123 140 195 164 141 126 121 127 141 153 166 193 205 192 149 145 101 73 51 64 59 63 64 68 70 71 71 63 60 58 56 57 62 64 63 61 61 63 64 63
95 72 110 112 102 104 119 119 103 123 209 167 146 140 136 139 150 164 170 177 163 147 192 174 153 124 102 89 79 78 68 73 79 80 81 85 74 65 63 61 57 62 68 68 64 66 65 64 62
88 93 79 91 86 93 95 95 115 61 92 109 119 127 142 155 167 179 181 172 141 159 196 191 160 145 126 108 102 98 95 100 104 89 89 103 102 89 80 72 66 68 75 75 71 71 69 67 64
104 94 80 69 70 76 96 75 95 134 115 119 131 147 163 169 172 167 179 187 182 189 199 182 162 154 145 137 131 101 91 98 97 97 106 113 110 103 93 83 73 71 78 81 81 79 76 69 67
97 80 47 29 56 82 100 28 280 167 134 143 156 165 179 198 190 201 209 198 190 190 190 173 168 149 145 146 137 104 88 102 105 109 110 109 113 111 109 97 84 81 85 86 82 73 71 65 61
70 69 36 312 87 110 116 251 267 155 149 167 181 185 197 225 226 228 221 197 170 162 164 182 168 151 148 138 117 102 92 98 105 113 107 108 113 114 108 99 92 94 94 91 84 70 71 62 57
50 110 235 289 210 140 147 231 262 156 160 185 197 201 204 230 254 251 225 199 172 168 167 161 151 152 148 127 100 87 81 78 89 105 109 117 123 121 113 108 102 105 100 88 93 74 82 80 67
195 188 221 236 223 136 169 239 264 187 180 202 210 209 212 224 238 238 219 193 169 157 154 154 147 141 133 114 92 75 64 55 65 87 109 129 134 136 127 125 124 122 112 93 88 88 71 83 80
155 159 206 243 208 157 206 247 262 218 198 211 218 216 221 229 238 233 207 167 154 152 151 156 150 149 138 122 123 120 103 64 62 81 117 133 134 137 137 137 137 132 125 126 118 106 90 75 71
146 159 206 294 112 151 222 268 268 214 213 213 214 218 221 225 231 231 221 191 184 189 187 173 168 163 163 150 139 136 133 127 121 48 75 122 139 143 145 142 150 146 132 119 123 125 116 89 65
200 195 194 188 69 73 62 313 285 262 231 232 222 220 217 214 214 217 213 218 206 203 199 195 188 179 168 144 112 91 72 52 44 41 52 72 140 146 142 147 151 149 148 155 161 152 139 144 72
227 219 180 157 132 279 127 286 285 258 258 242 238 228 225 223 212 210 208 213 214 213 206 200 186 178 170 155 148 150 156 173 209 193 170 106 127 144 148 149 150 154 159 163 176 161 147 140 142
198 114 121 129 140 31 344 201 288 280 259 254 242 233 230 221 210 211 211 211 213 208 199 191 178 175 169 168 168 161 163 181 165 138 139 137 121 142 158 165 164 161 166 175 177 158 154 156 156
132 81 67 55 71 296 237 182 280 244 233 249 239 231 227 218 208 210 212 204 203 194 186 173 172 183 175 174 177 171 175 175 162 178 184 191 198 203 188 179 176 174 174 179 186 174 169 173 161
98 98 43 6 4 259 245 195 252 256 238 227 230 227 220 207 200 200 200 203 205 198 194 183 174 190 189 180 187 187 187 185 186 197 200 200 210 223 219 195 190 187 186 177 167 163 177 176 172
167 147 158 200 229 276 299 236 256 270 275 243 221 208 198 200 200 201 203 203 205 204 197 189 183 192 191 188 196 194 187 187 194 200 198 203 212 223 218 200 197 193 181 172 162 169 181 170 181
138 168 163 139 162 266 280 284 297 308 349 21 158 166 199 207 205 204 202 198 199 201 201 197 195 197 194 192 186 185 189 195 198 198 196 208 218 217 200 196 194 184 174 167 162 176 179 158 176
142 143 109 125 156 270 296 280 258 265 262 253 217 208 219 213 207 206 202 201 201 198 193 191 192 199 194 181 183 183 191 198 198 189 193 200 219 212 195 198 196 188 178 171 172 179 176 161 180
119 117 121 122 154 162 268 276 237 230 226 216 222 215 207 202 199 201 204 204 192 182 175 178 186 184 182 183 180 173 183 182 175 194 203 201 214 213 202 204 202 197 189 182 180 191 181 180 185
168 167 153 158 209 174 187 266 284 246 229 208 214 220 215 202 198 196 193 177 170 177 176 180 186 185 192 185 178 186 186 171 174 206 219 206 214 219 216 205 203 207 201 192 193 202 198 193 196
Height
1506 1507 1509 1511 1515 1525 1528 1525 1522 1521 1521 1522 1521 1521 1523 1526 1529 1534 1530 1528 1528 1528 1528 1528 1528 1529 1529 1529 1530 1530 1531 1531 1531 1531 1531 1531 1531 1531 1531 1531 1531 1531 1531 1531 1531 1531 1531 1531 1531
1507 1509 1511 1512 1522 1535 1532 1524 1523 1522 1522 1522 1522 1524 1525 1527 1527 1529 1528 1529 1529 1529 1529 1529 1529 1530 1530 1530 1531 1531 1532 1532 1532 1532 1532 1533 1533 1533 1533 1533 1532 1533 1532 1532 1533 1533 1533 1533 1533
1509 1510 1512 1516 1526 1533 1530 1524 1523 1522 1523 1523 1524 1525 1527 1528 1528 1529 1529 1530 1530 1530 1530 1530 1530 1531 1531 1532 1532 1532 1533 1533 1533 1533 1534 1534 1534 1534 1534 1534 1534 1534 1534 1534 1534 1534 1534 1534 1534
1510 1512 1514 1521 1527 1526 1524 1523 1522 1523 1524 1524 1525 1527 1528 1530 1530 1530 1530 1531 1531 1531 1531 1531 1532 1532 1532 1533 1533 1534 1534 1534 1535 1535 1535 1535 1535 1535 1535 1535 1535 1535 1535 1535 1535 1535 1535 1535 1535
1511 1512 1520 1528 1526 1524 1522 1522 1523 1523 1525 1526 1526 1528 1529 1530 1531 1531 1531 1532 1532 1532 1532 1532 1533 1533 1534 1534 1534 1535 1535 1536 1536 1536 1537 1537 1537 1537 1537 1537 1537 1537 1537 1536 1536 1537 1537 1536 1536
1512 1514 1528 1533 1528 1524 1523 1523 1524 1524 1526 1527 1528 1529 1531 1532 1532 1533 1533 1533 1534 1534 1534 1534 1534 1534 1535 1535 1536 1536 1537 1537 1537 1538 1538 1538 1539 1539 1539 1538 1538 1538 1538 1538 1538 1538 1538 1538 1538
1513 1519 1527 1529 1529 1526 1524 1524 1525 1525 1527 1528 1529 1530 1531 1532 1533 1534 1534 1535 1535 1535 1535 1535 1536 1536 1536 1537 1537 1537 1538 1539 1539 1539 1539 1540 1540 1540 1540 1540 1540 1540 1540 1540 1540 1539 1539 1539 1539
1513 1519 1527 1529 1529 1527 1525 1525 1526 1526 1528 1529 1530 1530 1532 1533 1534 1535 1536 1536 1536 1536 1537 1537 1537 1538 1538 1538 1539 1539 1540 1540 1541 1541 1541 1541 1541 1542 1542 1542 1542 1542 1542 1541 1541 1541 1541 1541 1541
1514 1523 1530 1528 1527 1526 1524 1525 1527 1528 1528 1529 1530 1531 1532 1533 1535 1536 1537 1537 1537 1538 1538 1539 1539 1539 1540 1540 1541 1541 1542 1542 1542 1542 1542 1543 1543 1543 1543 1543 1543 1543 1543 1543 1543 1543 1542 1542 1542
1515 1526 1525 1523 1522 1523 1524 1525 1527 1528 1529 1530 1531 1532 1533 1534 1535 1536 1537 1538 1538 1539 1539 1540 1540 1541 1541 1542 1542 1542 1543 1543 1544 1544 1544 1544 1544 1544 1544 1545 1545 1544 1544 1544 1544 1544 1544 1544 1544
1516 1522 1522 1522 1522 1523 1525 1527 1528 1528 1531 1530 1531 1532 1533 1535 1536 1537 1538 1538 1539 1540 1541 1541 1542 1542 1543 1543 1544 1544 1544 1545 1545 1545 1545 1545 1545 1545 1545 1546 1546 1546 1546 1546 1546 1546 1545 1545 1545
1519 1521 1521 1523 1523 1524 1525 1527 1529 1529 1530 1531 1531 1532 1533 1535 1536 1537 1538 1539 1540 1541 1542 1542 1542 1543 1544 1544 1545 1545 1545 1546 1546 1546 1547 1547 1547 1547 1546 1547 1547 1547 1547 1547 1547 1547 1547 1547 1547
1520 1522 1523 1523 1524 1525 1526 1528 1529 1530 1531 1532 1532 1533 1534 1536 1537 1538 1539 1540 1541 1542 1542 1543 1543 1544 1544 1545 1546 1546 1546 1547 1547 1547 1547 1548 1548 1547 1548 1548 1548 1548 1548 1548 1548 1548 1548 1548 1548
1522 1523 1524 1525 1525 1526 1528 1529 1530 1531 1532 1533 1533 1534 1535 1537 1538 1539 1540 1540 1541 1542 1543 1543 1544 1545 1545 1546 1546 1547 1547 1547 1548 1548 1548 1548 1548 1548 1549 1549 1549 1549 1549 1549 1549 1549 1549 1549 1549
1522 1525 1526 1526 1527 1528 1529 1532 1531 1531 1532 1533 1534 1535 1536 1537 1538 1539 1540 1541 1542 1542 1543 1544 1544 1545 1546 1546 1547 1547 1547 1548 1548 1548 1548 1548 1549 1549 1549 1549 1550 1550 1550 1550 1550 1550 1550 1550 1550
1524 1529 1534 1529 1528 1529 1533 1538 1531 1531 1532 1533 1534 1535 1536 1538 1539 1540 1540 1541 1542 1543 1544 1544 1545 1545 1546 1546 1547 1547 1547 1548 1548 1548 1549 1549 1549 1549 1549 1550 1550 1550 1551 1551 1551 1551 1551 1551 1551
1531 1537 1536 1532 1528 1529 1532 1536 1531 1531 1532 1532 1533 1535 1536 1537 1538 1539 1540 1541 1542 1543 1544 1544 1545 1545 1546 1547 1547 1548 1548 1548 1548 1548 1549 1549 1549 1550 1550 1550 1550 1551 1551 1552 1552 1552 1552 1552 1552
1536 1537 1536 1535 1529 1530 1533 1534 1530 1531 1531 1532 1532 1534 1535 1536 1537 1538 1539 1540 1542 1543 1543 1544 1545 1546 1546 1547 1547 1547 1548 1548 1548 1549 1549 1549 1550 1550 1550 1551 1551 1551 1552 1552 1552 1552 1552 1552 1552
1528 1533 1535 1532 1528 1531 1533 1533 1530 1530 1530 1531 1531 1532 1533 1534 1536 1537 1538 1539 1541 1542 1543 1544 1544 1545 1546 1546 1547 1547 1547 1548 1548 1548 1549 1549 1550 1550 1550 1551 1551 1551 1552 1552 1552 1552 1552 1552 1552
1527 1532 1534 1531 1528 1531 1534 1533 1529 1528 1528 1528 1529 1530 1531 1532 1534 1535 1537 1538 1540 1541 1542 1543 1544 1545 1545 1546 1547 1547 1547 1548 1548 1548 1549 1549 1550 1550 1550 1551 1551 1551 1552 1552 1552 1552 1552 1552 1552
1528 1531 1531 1532 1530 1530 1533 1535 1531 1527 1527 1527 1527 1528 1529 1530 1531 1533 1535 1537 1538 1539 1540 1542 1543 1544 1545 1545 1546 1546 1547 1547 1547 1548 1548 1549 1549 1550 1550 1550 1550 1551 1551 1551 1551 1552 1551 1551 1552
1529 1523 1525 1528 1535 1540 1537 1547 1533 1528 1526 1525 1525 1525 1526 1528 1529 1531 1533 1535 1536 1538 1539 1540 1542 1543 1544 1544 1545 1545 1546 1546 1546 1547 1548 1548 1549 1549 1550 1550 1550 1550 1550 1550 1550 1551 1551 1551 1551
1522 1520 1524 1528 1534 1541 1540 1546 1538 1529 1528 1523 1521 1522 1523 1524 1526 1528 1530 1532 1534 1536 1537 1539 1540 1541 1542 1543 1544 1545 1545 1545 1546 1546 1547 1547 1548 1548 1549 1549 1549 1549 1549 1549 1549 1549 1550 1550 1550
1519 1524 1529 1535 1540 1548 1541 1546 1541 1530 1524 1520 1518 1518 1519 1521 1524 1526 1528 1530 1532 1534 1536 1537 1538 1539 1541 1542 1543 1543 1544 1544 1545 1545 1545 1546 1546 1547 1547 1548 1548 1548 1548 1548 1548 1548 1549 1549 1549
1521 1533 1547 1549 1554 1550 1538 1541 1536 1520 1516 1515 1515 1515 1516 1519 1521 1523 1526 1528 1530 1531 1533 1534 1536 1537 1538 1540 1541 1541 1542 1543 1543 1543 1544 1544 1545 1545 1546 1546 1546 1546 1546 1547 1547 1547 1547 1548 1548
1522 1529 1545 1552 1554 1549 1539 1540 1528 1515 1513 1512 1513 1513 1515 1517 1519 1521 1523 1525 1527 1529 1531 1532 1533 1535 1536 1537 1538 1539 1540 1541 1541 1541 1542 1542 1543 1543 1544 1544 1544 1545 1545 1545 1545 1545 1546 1546 1546
1522 1528 1528 1541 1544 1549 1543 1534 1522 1513 1512 1512 1512 1513 1514 1515 1517 1519 1521 1523 1525 1527 1529 1530 1531 1532 1534 1535 1536 1537 1538 1539 1539 1539 1540 1540 1540 1541 1541 1542 1542 1542 1543 1543 1543 1543 1544 1544 1544
1516 1523 1534 1541 1549 1553 1544 1537 1530 1518 1514 1512 1512 1512 1513 1514 1515 1517 1519 1521 1523 1525 1526 1528 1530 1531 1532 1533 1534 1535 1536 1536 1537 1537 1537 1537 1538 1538 1539 1539 1540 1540 1540 1541 1541 1541 1542 1542 1542
1520 1524 1531 1540 1542 1550 1551 1540 1516 1513 1511 1511 1511 1511 1511 1512 1514 1515 1517 1519 1521 1523 1524 1525 1527 1528 1529 1530 1531 1532 1533 1534 1534 1534 1534 1535 1535 1536 1536 1537 1537 1538 1538 1538 1538 1539 1539 1540 1540
1513 1518 1527 1537 1541 1544 1547 1538 1510 1509 1508 1508 1509 1510 1510 1511 1513 1514 1516 1517 1519 1520 1522 1523 1524 1525 1527 1528 1529 1530 1530 1531 1531 1531 1531 1532 1532 1533 1533 1534 1534 1535 1535 1535 1536 1536 1536 1537 1537